Huntington, WV

6:36 AM EST on February 26, 2017 (GMT -0500)
Tri-State / Ferguson

Weather History for KHTS - September, 2015

Change the Weather History Date:

Friday, September 4, 2015

  Actual Average Record
Temperature  
Mean Temperature 77 °F 72 °F  
Max Temperature 90 °F 83 °F 99 °F (1953)
Min Temperature 64 °F 61 °F 43 °F (1902)
Degree Days  
Heating Degree Days 0 0  
Month to date heating degree days 0 0  
Since 1 July heating degree days 0 2  
Cooling Degree Days 12 7  
Month to date cooling degree days 50 30  
Year to date cooling degree days 1018 1007  
Growing Degree Days 27 (Base 50)    
Moisture  
Dew Point 67 °F    
Average Humidity 74    
Maximum Humidity 100    
Minimum Humidity 47    
Precipitation  
Precipitation 0.04 in 0.11 in 1.08 in (1935)
Month to date precipitation 0.04 0.42  
Year to date precipitation 34.84 30.67  
Snow  
Snow 0.00 in - - ()
Month to date snowfall 0.0  
Since 1 September snowfall 0.0  
Snow Depth 0.00 in    
Sea Level Pressure  
Sea Level Pressure 30.03 in    
Wind  
Wind Speed 4 mph (East)    
Max Wind Speed 17 mph    
Max Gust Speed 22 mph    
Visibility 6 miles    
Events Rain , Thunderstorm    
T = Trace of Precipitation, MM = Missing Value Source: NWS Daily Summary

Daily Weather History Graph

Daily Weather History Graph

Search for Another Location

Airport or City:

Trip Planner

Search our weather history database for the weather conditions in past years. The results will help you decide how hot, cold, wet, or windy it might be!

Date:

Astronomy

Sep. 04, 2015 Rise Set
Actual Time 7:02 AM EDT 7:55 PM EDT
Civil Twilight 6:35 AM EDT 8:22 PM EDT
Nautical Twilight 6:03 AM EDT 8:54 PM EDT
Astronomical Twilight 5:30 AM EDT 9:27 PM EDT
Moon No Moon Rise 1:37 PM EDT (9/4)
Length of Visible Light 13h 47m
Length of Day
12h 53m
Waning Gibbous, 58% of the Moon is Illuminated
Sep 4
Waning Gibbous
Sep 5
Last Quarter
Sep 13
New
Sep 21
First Quarter
Sep 27
Full

Hourly Weather History & Observations

Time (EDT) Temp. Heat Index Dew Point Humidity Pressure Visibility Wind Dir Wind Speed Gust Speed Precip Events Conditions
12:51 AM 68.0 °F - 66.9 °F 96% 29.97 in 6.0 mi Calm Calm - N/A   Clear
1:51 AM 66.9 °F - 66.9 °F 100% 29.97 in 4.0 mi SE 3.5 mph - N/A   Clear
2:51 AM 66.0 °F - 66.0 °F 100% 29.96 in 4.0 mi Calm Calm - N/A   Clear
3:41 AM 66.0 °F - 66.0 °F 100% 30.00 in 3.0 mi Calm Calm - N/A   Partly Cloudy
3:51 AM 64.9 °F - 64.9 °F 100% 29.98 in 4.0 mi ESE 3.5 mph - N/A   Clear
3:57 AM 64.9 °F - 64.9 °F 100% 30.00 in 1.5 mi ESE 4.6 mph - N/A   Clear
3:59 AM 64.9 °F - 64.9 °F 100% 30.00 in 0.8 mi East 3.5 mph - N/A   Mist
4:06 AM 64.9 °F - 64.9 °F 100% 30.00 in 1.0 mi East 3.5 mph - N/A   Clear
4:10 AM 64.9 °F - 64.9 °F 100% 30.00 in 3.0 mi East 4.6 mph - N/A   Clear
4:51 AM 66.0 °F - 64.9 °F 96% 29.99 in 5.0 mi Calm Calm - N/A   Clear
5:51 AM 64.9 °F - 64.0 °F 97% 30.00 in 5.0 mi Calm Calm - N/A   Clear
6:51 AM 64.0 °F - 64.0 °F 100% 30.01 in 4.0 mi Calm Calm - N/A   Clear
7:10 AM 64.0 °F - 64.0 °F 100% 30.04 in 2.0 mi Calm Calm - N/A   Clear
7:39 AM 64.0 °F - 64.0 °F 100% 30.05 in 4.0 mi Calm Calm - N/A   Clear
7:51 AM 66.0 °F - 64.9 °F 96% 30.04 in 4.0 mi Calm Calm - N/A   Clear
8:51 AM 69.1 °F - 66.9 °F 93% 30.05 in 5.0 mi ENE 6.9 mph - N/A   Partly Cloudy
9:51 AM 73.0 °F - 66.9 °F 81% 30.05 in 8.0 mi Variable 3.5 mph - N/A   Clear
10:51 AM 79.0 °F - 68.0 °F 69% 30.06 in 9.0 mi Variable 4.6 mph - N/A   Clear
11:51 AM 82.9 °F 86.5 °F 69.1 °F 63% 30.06 in 10.0 mi ESE 5.8 mph - N/A   Clear
12:51 PM 86.0 °F 90.1 °F 69.1 °F 57% 30.06 in 10.0 mi Variable 5.8 mph - N/A   Clear
1:51 PM 84.9 °F 88.2 °F 68.0 °F 57% 30.05 in 9.0 mi NE 3.5 mph - N/A   Partly Cloudy
2:51 PM 89.1 °F 92.1 °F 66.9 °F 48% 30.03 in 10.0 mi Variable 3.5 mph - N/A   Partly Cloudy
3:51 PM 87.1 °F 90.6 °F 68.0 °F 53% 30.01 in 10.0 mi SE 8.1 mph - N/A   Partly Cloudy
4:51 PM 88.0 °F 92.1 °F 69.1 °F 53% 30.00 in 8.0 mi Variable 4.6 mph - N/A   Clear
5:34 PM 89.1 °F 92.9 °F 68.0 °F 50% 30.02 in 8.0 mi Variable 5.8 mph - N/A Thunderstorm Thunderstorm
5:51 PM 84.9 °F 88.8 °F 69.1 °F 59% 30.01 in 6.0 mi ENE 6.9 mph - 0.00 in Rain , Thunderstorm Light Thunderstorms and Rain
6:51 PM 77.0 °F - 69.1 °F 76% 30.03 in 10.0 mi Calm Calm - 0.04 in   Scattered Clouds
7:51 PM 75.0 °F - 68.0 °F 79% 30.05 in 9.0 mi Calm Calm - N/A   Clear
8:37 PM 75.0 °F - 68.0 °F 79% 30.07 in 10.0 mi Calm Calm - N/A Thunderstorm Thunderstorm
8:51 PM 73.0 °F - 68.0 °F 84% 30.06 in 9.0 mi North 3.5 mph - N/A Thunderstorm Thunderstorm
9:51 PM 73.0 °F - 66.9 °F 81% 30.08 in 10.0 mi NNW 4.6 mph - N/A   Clear
10:51 PM 72.0 °F - 66.0 °F 81% 30.08 in 10.0 mi Calm Calm - N/A   Clear
11:51 PM 70.0 °F - 66.9 °F 90% 30.10 in 8.0 mi NNW 11.5 mph 17.3 mph N/A   Clear